User: anonymous   Login
Location: Newark
(3.3223°N, 76.2348°W)
Time: 16:39:26
(UTC+00:00)
Language:

DOVE 4 - Orbit

View from above orbital plane
View from above orbital plane
View from above satellite
View from above satellite

Ground track
Ground track

The orbit data is extracted from the following two-line orbital elements,

1 39430U 13066Q   20025.47815696  .00000062  00000-0  20832-4 0  9997
2 39430  97.7749 332.8317 0149787 278.3970  80.0260 14.59341800328805
Epoch (UTC): 25 January 2020 11:28:32
Eccentricity: 0.0149787
inclination: 97.7749°
perigee height: 589 km
apogee height: 801 km
right ascension of ascending node: 332.8317°
argument of perigee: 278.3970°
revolutions per day: 14.59341800
mean anomaly at epoch: 80.0260°
orbit number at epoch: 32880

The dashed part of the orbit path shows where the satellite is in the earth's shadow,  

DLR